SCP
0 0 0 -0 0 -0 0 -0 0 -0 0 0 -0 -0 0 -0 -0 -0 -0 0 0 -0 -0 -0 -0 -0 -0 -0 -0 -0 -0 0
0 0 0 0 0 0 0 -0 0 1 1 0 0 0 -0 -0 -0 -0 -0 0 -0 -0 -0 -0 -0 -0 -0 -0 -0 -0 -0 -0
0 0 0 0 0 0 -0 -0 0 1 1 1 0 -1 -0 -0 -0 -1 -0 0 0 -0 -0 -0 -0 -0 -0 -0 -0 -0 -0 -0
0 0 0 -0 -0 0 -0 0 0 1 1 1 0 -0 -0 -0 -0 -0 -0 -0 0 -0 -0 -0 -0 -0 -0 -0 -0 -0 -0 -0
0 0 0 0 0 0 -0 0 0 1 1 0 0 0 0 -0 -0 -0 -0 -0 0 0 0 -0 -0 -0 -0 -0 -0 -0 -0 -0
0 0 0 0 0 0 0 0 0 1 1 0 0 0 0 0 0 -0 -0 0 0 0 0 0 0 -0 -0 -0 -0 -0 -0 -0
0 0 0 0 0 0 0 0 2 2 2 1 1 0 0 0 0 0 0 0 0 0 0 0 0 0 0 -0 -0 -0 -0 0
0 0 0 0 0 0 0 0 2 2 2 1 2 1 0 0 0 0 0 0 0 0 0 0 0 0 0 0 0 0 0 0
0 0 0 0 0 0 0 0 1 1 1 0 1 0 0 0 0 0 0 0 0 0 0 0 0 0 0 0 0 0 0 0
0 0 0 0 -0 0 -0 0 2 0 0 0 0 0 0 1 0 0 0 0 0 0 0 0 0 0 0 0 0 0 0 0
0 0 0 0 0 0 0 0 0 1 0 0 -0 -1 0 1 0 0 0 0 0 0 0 0 0 0 0 0 0 0 0 0
0 0 0 0 0 0 0 0 1 1 1 0 0 1 1 1 1 1 0 0 0 0 0 0 0 0 0 0 0 0 0 0
0 0 0 0 0 0 0 0 1 1 1 4 3 2 2 0 1 1 1 0 0 0 0 0 0 0 0 0 0 0 0 0
0 0 0 0 0 0 0 0 0 0 2 2 1 0 2 2 1 1 2 1 1 0 0 1 1 1 1 0 1 0 0 1
0 0 0 0 0 0 0 0 0 0 0 1 0 0 -0 3 10 7 3 2 2 1 0 1 2 2 1 1 1 1 1 1
0 0 0 0 0 0 0 0 0 0 0 0 1 1 1 1 0 7 6 4 5 2 2 2 2 2 2 1 1 2 2 2
0 0 0 0 0 0 0 0 0 0 0 0 1 1 0 0 0 1 4 4 4 3 2 2 3 2 2 2 2 2 1 1
0 0 0 0 0 0 0 0 0 0 0 0 1 2 0 0 -0 2 0 1 3 3 2 2 3 2 1 1 1 2 1 1
0 0 0 0 0 0 0 0 0 0 0 0 1 2 2 3 2 2 1 1 2 2 3 2 2 2 2 2 2 2 1 1
0 0 0 0 0 0 0 0 0 0 0 0 0 1 1 1 1 1 1 1 1 1 1 1 2 2 2 2 2 1 2 2
Wind_Speed_500mb
8 9 20 12 32 42 21 84 65 49 104 24 37 64 32 56 59 64 64 60 55 50 52 50 47 42 37 32 30 31 33 32
6 22 24 37 40 29 35 58 23 53 21 44 53 50 51 59 57 65 63 56 51 49 50 49 46 41 36 31 27 27 29 29
12 24 33 37 54 61 38 35 14 55 20 20 48 47 62 57 54 69 65 58 51 49 49 48 45 41 35 30 25 23 26 28
28 22 35 42 65 57 31 22 38 36 42 28 67 67 58 45 67 62 65 58 54 50 49 46 43 41 36 30 24 21 23 26
13 33 38 49 58 32 39 24 28 45 30 47 66 65 50 48 56 59 62 59 56 54 50 46 44 41 36 30 24 20 22 25
25 29 34 53 52 57 43 5 31 28 14 40 70 63 49 66 55 48 58 55 55 53 51 49 45 40 35 30 25 22 23 26
41 37 34 51 17 61 55 7 23 23 55 69 68 58 65 60 57 43 52 52 49 49 48 46 44 42 40 36 32 31 30 30
12 20 23 51 36 58 8 11 20 68 66 68 73 64 62 60 54 42 55 55 52 49 47 45 44 42 41 38 34 33 33 31
34 54 55 49 40 56 21 42 51 65 60 70 73 55 53 56 50 40 42 53 52 50 45 42 40 38 37 35 33 31 31 30
35 68 61 44 55 33 35 33 66 68 68 71 61 70 80 72 61 53 48 46 45 47 45 40 35 32 28 28 29 29 27 28
59 73 65 59 41 34 29 35 60 77 82 72 72 69 82 82 68 62 57 46 42 42 41 34 27 20 27 24 20 17 22 22
56 67 62 36 32 33 20 36 44 81 69 65 62 56 51 63 77 74 61 60 54 40 43 43 30 18 18 17 7 8 8 9
38 51 40 38 26 20 30 25 58 67 66 53 45 39 48 61 76 72 63 67 61 47 43 50 30 26 17 15 18 22 17 20
44 36 46 23 29 17 33 10 40 45 52 54 39 31 16 49 79 79 76 68 56 48 45 54 47 32 35 28 34 22 25 30
35 36 16 26 14 15 34 20 24 37 43 75 84 65 68 39 81 92 68 63 54 49 43 35 48 51 41 44 32 25 29 34
38 40 33 17 15 15 41 30 20 17 39 41 43 80 60 49 27 65 49 59 50 40 34 32 24 48 49 41 40 32 33 29
31 28 24 16 19 19 20 25 24 23 32 35 35 35 24 40 26 33 78 63 45 43 37 36 33 30 38 40 35 38 40 44
24 27 32 15 18 21 15 15 33 30 31 34 37 61 60 49 56 53 13 33 42 46 42 38 37 30 24 21 29 27 23 25
19 33 26 16 7 22 21 11 46 45 43 49 50 56 56 52 41 32 39 53 50 53 48 53 41 31 26 20 24 29 28 29
31 17 14 26 23 13 27 12 24 43 52 50 49 54 54 53 40 31 19 22 23 29 31 40 41 38 34 36 27 28 23 21
Wind_Direction_500mb
181 216 229 252 258 257 319 159 155 149 210 125 126 130 141 156 153 159 158 158 155 156 158 159 158 154 149 139 134 136 140 134
216 245 238 238 263 279 287 299 142 117 93 115 141 146 155 154 157 162 156 154 153 155 158 161 161 158 154 146 140 139 143 140
222 250 260 258 251 258 268 262 205 111 109 86 141 150 156 156 161 161 154 153 152 154 159 164 165 160 160 154 147 143 151 151
226 239 246 258 259 268 291 180 113 105 117 113 138 146 154 158 162 156 153 151 150 153 160 165 166 165 165 163 157 152 159 160
246 223 254 249 253 260 265 203 54 112 114 136 136 145 144 142 155 149 155 153 153 156 160 164 167 169 170 172 168 169 167 169
237 244 251 251 258 257 254 157 134 104 133 146 145 142 134 154 153 153 158 157 156 157 161 164 168 171 174 178 176 176 176 178
231 228 246 269 266 254 259 103 77 85 124 133 140 137 144 157 155 160 166 162 158 158 159 163 166 172 177 182 182 181 182 186
246 243 242 261 261 275 206 231 86 94 114 128 135 143 149 159 156 167 170 169 165 162 163 166 170 174 178 182 184 186 186 189
242 258 265 276 284 272 247 213 155 130 137 142 133 136 166 172 176 178 169 173 172 168 170 173 174 177 181 184 187 191 193 196
254 247 261 268 283 288 295 187 176 145 149 154 175 175 179 178 179 178 174 183 179 173 176 178 174 182 183 190 191 200 202 204
245 256 263 273 270 282 299 221 167 155 150 159 174 183 180 179 179 182 170 172 179 173 175 176 170 181 194 196 201 214 221 217
238 246 256 264 284 294 291 147 133 144 154 156 165 183 183 173 176 179 172 175 180 179 176 185 193 204 208 177 194 232 253 258
243 242 242 252 288 232 240 156 146 151 156 150 157 192 189 180 179 179 179 182 181 178 178 183 183 195 192 225 239 241 265 281
238 235 234 193 255 246 235 178 148 147 154 149 170 226 260 199 188 190 174 180 178 179 182 188 181 178 189 196 211 226 246 264
234 220 233 186 232 236 236 250 170 178 151 144 162 192 233 192 178 167 173 180 181 184 184 193 200 196 198 202 202 216 232 247
218 214 213 196 195 237 246 247 220 197 170 168 190 184 190 174 290 182 187 177 176 182 189 195 201 207 216 219 219 217 231 238
218 212 198 202 168 222 242 217 201 196 172 190 174 165 189 219 237 181 173 174 188 191 185 192 199 200 211 215 221 225 231 243
220 227 188 194 188 222 242 223 196 190 185 212 165 141 151 159 169 206 261 236 198 205 202 202 200 196 203 235 227 239 258 267
205 212 190 146 216 206 231 239 198 190 197 219 182 154 146 150 151 159 181 206 212 212 213 217 214 199 202 199 233 239 250 280
208 201 189 165 201 233 213 218 181 180 195 218 176 170 163 154 158 172 200 208 201 196 200 209 213 209 209 226 229 225 241 284
Wind_Speed_850mb
8 9 20 12 32 42 21 84 65 49 104 24 37 64 32 56 59 64 64 60 55 50 52 50 47 42 37 32 30 31 33 32
6 22 24 37 40 29 35 58 23 53 21 44 53 50 51 59 57 65 63 56 51 49 50 49 46 41 36 31 27 27 29 29
12 24 33 37 54 61 38 35 14 55 20 20 48 47 62 57 54 69 65 58 51 49 49 48 45 41 35 30 25 23 26 28
28 22 35 42 65 57 31 22 38 36 42 28 67 67 58 45 67 62 65 58 54 50 49 46 43 41 36 30 24 21 23 26
13 33 38 49 58 32 39 24 28 45 30 47 66 65 50 48 56 59 62 59 56 54 50 46 44 41 36 30 24 20 22 25
25 29 34 53 52 57 43 5 31 28 14 40 70 63 49 66 55 48 58 55 55 53 51 49 45 40 35 30 25 22 23 26
41 37 34 51 17 61 55 7 23 23 55 69 68 58 65 60 57 43 52 52 49 49 48 46 44 42 40 36 32 31 30 30
12 20 23 51 36 58 8 11 20 68 66 68 73 64 62 60 54 42 55 55 52 49 47 45 44 42 41 38 34 33 33 31
34 54 55 49 40 56 21 42 51 65 60 70 73 55 53 56 50 40 42 53 52 50 45 42 40 38 37 35 33 31 31 30
35 68 61 44 55 33 35 33 66 68 68 71 61 70 80 72 61 53 48 46 45 47 45 40 35 32 28 28 29 29 27 28
59 73 65 59 41 34 29 35 60 77 82 72 72 69 82 82 68 62 57 46 42 42 41 34 27 20 27 24 20 17 22 22
56 67 62 36 32 33 20 36 44 81 69 65 62 56 51 63 77 74 61 60 54 40 43 43 30 18 18 17 7 8 8 9
38 51 40 38 26 20 30 25 58 67 66 53 45 39 48 61 76 72 63 67 61 47 43 50 30 26 17 15 18 22 17 20
44 36 46 23 29 17 33 10 40 45 52 54 39 31 16 49 79 79 76 68 56 48 45 54 47 32 35 28 34 22 25 30
35 36 16 26 14 15 34 20 24 37 43 75 84 65 68 39 81 92 68 63 54 49 43 35 48 51 41 44 32 25 29 34
38 40 33 17 15 15 41 30 20 17 39 41 43 80 60 49 27 65 49 59 50 40 34 32 24 48 49 41 40 32 33 29
31 28 24 16 19 19 20 25 24 23 32 35 35 35 24 40 26 33 78 63 45 43 37 36 33 30 38 40 35 38 40 44
24 27 32 15 18 21 15 15 33 30 31 34 37 61 60 49 56 53 13 33 42 46 42 38 37 30 24 21 29 27 23 25
19 33 26 16 7 22 21 11 46 45 43 49 50 56 56 52 41 32 39 53 50 53 48 53 41 31 26 20 24 29 28 29
31 17 14 26 23 13 27 12 24 43 52 50 49 54 54 53 40 31 19 22 23 29 31 40 41 38 34 36 27 28 23 21
Wind_Direction_850mb
181 216 229 252 258 257 319 159 155 149 210 125 126 130 141 156 153 159 158 158 155 156 158 159 158 154 149 139 134 136 140 134
216 245 238 238 263 279 287 299 142 117 93 115 141 146 155 154 157 162 156 154 153 155 158 161 161 158 154 146 140 139 143 140
222 250 260 258 251 258 268 262 205 111 109 86 141 150 156 156 161 161 154 153 152 154 159 164 165 160 160 154 147 143 151 151
226 239 246 258 259 268 291 180 113 105 117 113 138 146 154 158 162 156 153 151 150 153 160 165 166 165 165 163 157 152 159 160
246 223 254 249 253 260 265 203 54 112 114 136 136 145 144 142 155 149 155 153 153 156 160 164 167 169 170 172 168 169 167 169
237 244 251 251 258 257 254 157 134 104 133 146 145 142 134 154 153 153 158 157 156 157 161 164 168 171 174 178 176 176 176 178
231 228 246 269 266 254 259 103 77 85 124 133 140 137 144 157 155 160 166 162 158 158 159 163 166 172 177 182 182 181 182 186
246 243 242 261 261 275 206 231 86 94 114 128 135 143 149 159 156 167 170 169 165 162 163 166 170 174 178 182 184 186 186 189
242 258 265 276 284 272 247 213 155 130 137 142 133 136 166 172 176 178 169 173 172 168 170 173 174 177 181 184 187 191 193 196
254 247 261 268 283 288 295 187 176 145 149 154 175 175 179 178 179 178 174 183 179 173 176 178 174 182 183 190 191 200 202 204
245 256 263 273 270 282 299 221 167 155 150 159 174 183 180 179 179 182 170 172 179 173 175 176 170 181 194 196 201 214 221 217
238 246 256 264 284 294 291 147 133 144 154 156 165 183 183 173 176 179 172 175 180 179 176 185 193 204 208 177 194 232 253 258
243 242 242 252 288 232 240 156 146 151 156 150 157 192 189 180 179 179 179 182 181 178 178 183 183 195 192 225 239 241 265 281
238 235 234 193 255 246 235 178 148 147 154 149 170 226 260 199 188 190 174 180 178 179 182 188 181 178 189 196 211 226 246 264
234 220 233 186 232 236 236 250 170 178 151 144 162 192 233 192 178 167 173 180 181 184 184 193 200 196 198 202 202 216 232 247
218 214 213 196 195 237 246 247 220 197 170 168 190 184 190 174 290 182 187 177 176 182 189 195 201 207 216 219 219 217 231 238
218 212 198 202 168 222 242 217 201 196 172 190 174 165 189 219 237 181 173 174 188 191 185 192 199 200 211 215 221 225 231 243
220 227 188 194 188 222 242 223 196 190 185 212 165 141 151 159 169 206 261 236 198 205 202 202 200 196 203 235 227 239 258 267
205 212 190 146 216 206 231 239 198 190 197 219 182 154 146 150 151 159 181 206 212 212 213 217 214 199 202 199 233 239 250 280
208 201 189 165 201 233 213 218 181 180 195 218 176 170 163 154 158 172 200 208 201 196 200 209 213 209 209 226 229 225 241 284